Weather History for Quincy, IL

Change the Weather History Date:

Thursday, December 12, 2013

  Actual Average Record
Temperature  
Mean Temperature 21 °F 30 °F  
Max Temperature 39 °F 38 °F 67 °F (1991)
Min Temperature 2 °F 23 °F -10 °F (1962)
Degree Days  
Heating Degree Days 44 35  
Month to date heating degree days 464 391  
Since 1 July heating degree days 1597 1491  
Cooling Degree Days 0 0  
Month to date cooling degree days 0 0  
Year to date cooling degree days 1242 1094  
Moisture  
Dew Point 7 °F    
Average Humidity 58    
Maximum Humidity 79    
Minimum Humidity 37    
Precipitation  
Precipitation 0.00 in 0.08 in 1.50 in (1946)
Month to date precipitation T 1.01  
Year to date precipitation 34.59 36.09  
Sea Level Pressure  
Sea Level Pressure 30.43 in    
Wind  
Wind Speed 10 mph (SSW)    
Max Wind Speed 21 mph    
Max Gust Speed 26 mph    
Visibility 10 miles    
Events      
T = Trace of Precipitation, MM = Missing Value Source: NWS Daily Summary

Daily Weather History Graph

Daily Weather History Graph

Search for Another Location

Airport:

Trip Planner

Search our weather history database for the weather conditions in past years. The results will help you decide how hot, cold, wet, or windy it might be!

Date:

Astronomy

Dec. 12, 2013 Rise Set
Actual Time 7:17 AM CST 4:39 PM CST
Civil Twilight 6:46 AM CST 5:10 PM CST
Nautical Twilight 6:12 AM CST 5:44 PM CST
Astronomical Twilight 5:40 AM CST 6:17 PM CST
Moon 1:47 PM CST (12/12) 2:40 AM CST (12/12)
Length of Visible Light 10h 23m
Length of Day
9h 22m
Waxing Gibbous, 80% of the Moon is Illuminated
Dec 12
Waxing Gibbous
Dec 17
Full
Dec 25
Last Quarter
Jan 1
New
Jan 7
First Quarter

Hourly Weather History & Observations

Time (CST) Temp. Windchill Dew Point Humidity Pressure Visibility Wind Dir Wind Speed Gust Speed Precip Events Conditions
12:54 AM 5.0 °F -5.6 °F -4.0 °F 66% 30.62 in 10.0 mi South 5.8 mph - N/A   Clear
1:54 AM 5.0 °F -5.6 °F -4.0 °F 66% 30.59 in 10.0 mi South 5.8 mph - N/A   Clear
2:54 AM 5.0 °F -6.9 °F -2.9 °F 70% 30.61 in 10.0 mi SW 6.9 mph - N/A   Clear
3:54 AM 3.9 °F -9.4 °F -2.9 °F 73% 30.58 in 10.0 mi South 8.1 mph - N/A   Clear
4:54 AM 3.9 °F -8.2 °F -2.9 °F 73% 30.57 in 10.0 mi SSW 6.9 mph - N/A   Clear
5:54 AM 6.1 °F -7.8 °F -2.0 °F 69% 30.56 in 10.0 mi SSW 9.2 mph - N/A   Clear
6:54 AM 7.0 °F -8.3 °F -0.9 °F 70% 30.55 in 10.0 mi SSW 11.5 mph - N/A   Clear
7:54 AM 9.0 °F -6.6 °F -0.0 °F 67% 30.53 in 10.0 mi South 12.7 mph - N/A   Clear
8:54 AM 16.0 °F 1.1 °F 3.9 °F 59% 30.51 in 10.0 mi SSW 15.0 mph - N/A   Clear
9:54 AM 21.9 °F 8.7 °F 6.1 °F 51% 30.50 in 10.0 mi SW 15.0 mph - N/A   Clear
10:54 AM 28.0 °F 17.0 °F 9.0 °F 45% 30.49 in 10.0 mi SW 13.8 mph - N/A   Clear
11:54 AM 33.1 °F 22.6 °F 10.9 °F 40% 30.44 in 10.0 mi WSW 16.1 mph - N/A   Clear
12:54 PM 36.0 °F 25.3 °F 12.0 °F 37% 30.39 in 10.0 mi WSW 19.6 mph 25.3 mph N/A   Clear
1:54 PM 37.0 °F 28.1 °F 14.0 °F 39% 30.36 in 10.0 mi SW 15.0 mph - N/A   Clear
2:54 PM 37.9 °F 29.6 °F 14.0 °F 38% 30.35 in 10.0 mi SW 13.8 mph - N/A   Clear
3:54 PM 37.0 °F 31.0 °F 15.1 °F 41% 30.34 in 10.0 mi WSW 8.1 mph - N/A   Clear
4:54 PM 33.1 °F 28.7 °F 14.0 °F 46% 30.33 in 10.0 mi SW 4.6 mph - N/A   Clear
5:54 PM 30.9 °F 27.5 °F 14.0 °F 50% 30.31 in 10.0 mi South 3.5 mph - N/A   Clear
6:54 PM 28.9 °F 23.9 °F 14.0 °F 54% 30.30 in 10.0 mi South 4.6 mph - N/A   Clear
7:54 PM 28.9 °F 22.8 °F 12.9 °F 51% 30.30 in 10.0 mi South 5.8 mph - N/A   Clear
8:54 PM 26.1 °F 18.4 °F 12.0 °F 55% 30.28 in 10.0 mi South 6.9 mph - N/A   Clear
9:54 PM 26.1 °F 16.8 °F 12.9 °F 58% 30.26 in 10.0 mi SSW 9.2 mph - N/A   Clear
10:54 PM 27.0 °F 17.3 °F 12.9 °F 56% 30.25 in 10.0 mi SSW 10.4 mph - N/A   Clear
11:54 PM 26.1 °F 16.2 °F 14.0 °F 60% 30.23 in 10.0 mi SSW 10.4 mph - N/A   Clear